{"data":{"norad_id":52851,"epoch":"2026-09-20T03:18:34.992000Z","epoch_age_seconds":97724,"freshness":"FRESH","line1":"1 52851U 22062X   26263.13790500  .00000517  00000+0  26457-4 0  9997","line2":"2 52851  53.1571 215.3270 0001375  87.8998 272.2162 15.34387100235497","mean_motion":15.343871,"eccentricity":0.0001375,"inclination_deg":53.1571,"raan_deg":215.327,"arg_perigee_deg":87.8998,"mean_anomaly_deg":272.2162,"bstar":2.6457e-5,"rev_number":23549,"period_min":93.84854708437,"perigee_km":461.80096118926,"apogee_km":463.6822027993,"semimajor_km":6840.8785819943,"source":"CELESTRAK","updated_at":"2026-09-20T09:00:40.115095Z"}}